Weather History for Grand Marais Airport, MN

Change the Weather History Date:

Sunday, June 30, 2013

  Actual Average Record
Temperature  
Mean Temperature 62 °F -  
Max Temperature 77 °F 68 °F 86 °F (2002)
Min Temperature 46 °F 48 °F 1 °F (1997)
Degree Days  
Heating Degree Days 4    
Growing Degree Days 12 (Base 50)    
Moisture  
Dew Point 45 °F    
Average Humidity 55    
Maximum Humidity 87    
Minimum Humidity 29    
Precipitation  
Precipitation 0.00 in - - ()
Sea Level Pressure  
Sea Level Pressure 30.10 in    
Wind  
Wind Speed 5 mph (NNW)    
Max Wind Speed 15 mph    
Max Gust Speed 20 mph    
Visibility 10 miles    
Events      
Averages and records for this station are not official NWS values.
T = Trace of Precipitation, MM = Missing Value Source: NWS Daily Summary

Daily Weather History Graph

Daily Weather History Graph

Search for Another Location

Airport:

Trip Planner

Search our weather history database for the weather conditions in past years. The results will help you decide how hot, cold, wet, or windy it might be!

Date:

Astronomy

Jun. 30, 2013 Rise Set
Actual Time 5:06 AM CDT 9:03 PM CDT
Civil Twilight 4:25 AM CDT 9:44 PM CDT
Nautical Twilight 3:29 AM CDT 10:40 PM CDT
Astronomical Twilight 1:58 AM CDT 12:10 AM CDT
Moon 12:27 AM CDT (6/30) 1:59 PM CDT (6/30)
Length of Visible Light 17h 19m
Length of Day
15h 57m
Last Quarter, 45% of the Moon is Illuminated
Jun 30
Last Quarter
Jul 8
New
Jul 15
First Quarter
Jul 22
Full
Jul 29
Last Quarter

Hourly Weather History & Observations

Time (CDT) Temp. Windchill Dew Point Humidity Pressure Visibility Wind Dir Wind Speed Gust Speed Precip Events Conditions
12:13 AM 53.6 °F - 42.8 °F 67% 30.02 in 10.0 mi NW 3.5 mph - N/A   Clear
12:34 AM 48.2 °F - 42.8 °F 82% 30.02 in 10.0 mi NW 5.8 mph - N/A   Clear
12:54 AM 46.4 °F 44.3 °F 42.8 °F 87% 30.03 in 10.0 mi NNW 4.6 mph - N/A   Clear
1:13 AM 46.4 °F 44.3 °F 42.8 °F 87% 30.03 in 10.0 mi NW 4.6 mph - N/A   Clear
1:33 AM 46.4 °F 44.3 °F 42.8 °F 87% 30.03 in 10.0 mi NNW 4.6 mph - N/A   Clear
1:53 AM 46.4 °F 43.5 °F 39.2 °F 76% 30.03 in 10.0 mi NW 5.8 mph - N/A   Clear
2:14 AM 48.2 °F - 39.2 °F 71% 30.03 in 10.0 mi NW 5.8 mph - N/A   Clear
2:34 AM 53.6 °F - 42.8 °F 67% 30.03 in 10.0 mi NW 4.6 mph - N/A   Clear
2:54 AM 48.2 °F - 41.0 °F 76% 30.04 in 10.0 mi NW 5.8 mph - N/A   Clear
3:13 AM 46.4 °F 43.5 °F 39.2 °F 76% 30.04 in 10.0 mi NW 5.8 mph - N/A   Clear
3:34 AM 46.4 °F 42.9 °F 41.0 °F 81% 30.04 in 10.0 mi NNW 6.9 mph - N/A   Clear
3:53 AM 48.2 °F - 41.0 °F 76% 30.04 in 10.0 mi NW 5.8 mph - N/A   Clear
4:13 AM 46.4 °F 43.5 °F 41.0 °F 81% 30.04 in 10.0 mi NNW 5.8 mph - N/A   Clear
4:34 AM 46.4 °F 43.5 °F 41.0 °F 81% 30.05 in 10.0 mi NNW 5.8 mph - N/A   Clear
4:53 AM 48.2 °F - 42.8 °F 82% 30.05 in 10.0 mi NNW 4.6 mph - N/A   Clear
5:13 AM 48.2 °F - 42.8 °F 82% 30.06 in 10.0 mi NNW 5.8 mph - N/A   Clear
5:34 AM 48.2 °F - 42.8 °F 82% 30.06 in 10.0 mi NNW 4.6 mph - N/A   Clear
5:53 AM 51.8 °F - 42.8 °F 71% 30.07 in 10.0 mi NNW 5.8 mph - N/A   Clear
6:14 AM 53.6 °F - 44.6 °F 72% 30.07 in 10.0 mi NNW 4.6 mph - N/A   Clear
6:34 AM 53.6 °F - 46.4 °F 77% 30.08 in 10.0 mi NNW 3.5 mph - N/A   Clear
6:53 AM 57.2 °F - 48.2 °F 72% 30.08 in 10.0 mi NNW 3.5 mph - N/A   Scattered Clouds
7:14 AM 60.8 °F - 48.2 °F 63% 30.08 in 10.0 mi NNW 3.5 mph - N/A   Clear
7:33 AM 62.6 °F - 50.0 °F 63% 30.09 in 10.0 mi NNW 4.6 mph - N/A   Scattered Clouds
7:54 AM 62.6 °F - 48.2 °F 59% 30.09 in 10.0 mi NNW 8.1 mph - N/A   Scattered Clouds
8:14 AM 64.4 °F - 48.2 °F 56% 30.09 in 10.0 mi NNW 3.5 mph - N/A   Scattered Clouds
8:33 AM 66.2 °F - 51.8 °F 60% 30.10 in 10.0 mi Calm Calm - N/A   Clear
8:54 AM 69.8 °F - 50.0 °F 49% 30.10 in 10.0 mi NW 3.5 mph - N/A   Clear
9:13 AM 71.6 °F - 46.4 °F 41% 30.10 in 10.0 mi NNW 4.6 mph - N/A   Clear
9:33 AM 71.6 °F - 46.4 °F 41% 30.10 in 10.0 mi NNW 4.6 mph - N/A   Clear
9:54 AM 73.4 °F - 46.4 °F 38% 30.10 in 10.0 mi NNW 8.1 mph - N/A   Clear
10:13 AM 73.4 °F - 44.6 °F 36% 30.10 in 10.0 mi NNW 9.2 mph - N/A   Clear
10:34 AM 73.4 °F - 44.6 °F 36% 30.10 in 10.0 mi NNW 8.1 mph - N/A   Clear
10:53 AM 73.4 °F - 44.6 °F 36% 30.10 in 10.0 mi North 9.2 mph 17.3 mph N/A   Clear
11:14 AM 73.4 °F - 44.6 °F 36% 30.11 in 10.0 mi NNW 11.5 mph - N/A   Clear
11:33 AM 73.4 °F - 42.8 °F 33% 30.11 in 10.0 mi North 8.1 mph 18.4 mph N/A   Clear
11:54 AM 73.4 °F - 39.2 °F 29% 30.11 in 10.0 mi NNW 11.5 mph 19.6 mph N/A   Clear
12:13 PM 75.2 °F - 41.0 °F 29% 30.10 in 10.0 mi NE 15.0 mph 18.4 mph N/A   Clear
12:33 PM 75.2 °F - 44.6 °F 34% 30.11 in 10.0 mi North 11.5 mph 17.3 mph N/A   Scattered Clouds
12:53 PM 73.4 °F - 44.6 °F 36% 30.11 in 10.0 mi NNW 13.8 mph 17.3 mph N/A   Scattered Clouds
1:14 PM 77.0 °F - 44.6 °F 32% 30.11 in 10.0 mi NNE 9.2 mph - N/A   Scattered Clouds
1:33 PM 75.2 °F - 44.6 °F 34% 30.11 in 10.0 mi North 8.1 mph - N/A   Scattered Clouds
1:53 PM 75.2 °F - 46.4 °F 36% 30.11 in 10.0 mi NNE 10.4 mph - N/A   Scattered Clouds
2:14 PM 77.0 °F - 44.6 °F 32% 30.11 in 10.0 mi NNE 6.9 mph - N/A   Clear
2:33 PM 75.2 °F - 46.4 °F 36% 30.11 in 10.0 mi North 5.8 mph - N/A   Scattered Clouds
2:54 PM 73.4 °F - 44.6 °F 36% 30.11 in 10.0 mi North 8.1 mph - N/A   Scattered Clouds
3:14 PM 77.0 °F - 44.6 °F 32% 30.11 in 10.0 mi NNE 6.9 mph - N/A   Clear
3:33 PM 73.4 °F - 46.4 °F 38% 30.11 in 10.0 mi Calm Calm - N/A   Scattered Clouds
3:53 PM 73.4 °F - 48.2 °F 41% 30.11 in 10.0 mi SW 3.5 mph - N/A   Scattered Clouds
4:14 PM 75.2 °F - 46.4 °F 36% 30.11 in 10.0 mi SW 3.5 mph - N/A   Scattered Clouds
4:33 PM 73.4 °F - 46.4 °F 38% 30.11 in 10.0 mi ESE 3.5 mph - N/A   Scattered Clouds
4:54 PM 73.4 °F - 48.2 °F 41% 30.11 in 10.0 mi South 6.9 mph - N/A   Scattered Clouds
5:14 PM 73.4 °F - 48.2 °F 41% 30.12 in 10.0 mi SSE 5.8 mph - N/A   Scattered Clouds
5:33 PM 69.8 °F - 48.2 °F 46% 30.12 in 10.0 mi South 4.6 mph - N/A   Scattered Clouds
5:53 PM 71.6 °F - 46.4 °F 41% 30.12 in 10.0 mi South 5.8 mph - N/A   Clear
6:13 PM 71.6 °F - 48.2 °F 43% 30.12 in 10.0 mi South 3.5 mph - N/A   Clear
6:34 PM 73.4 °F - 48.2 °F 41% 30.12 in 10.0 mi Calm Calm - N/A   Scattered Clouds
6:54 PM 71.6 °F - 48.2 °F 43% 30.12 in 10.0 mi Calm Calm - N/A   Scattered Clouds
7:14 PM 71.6 °F - 46.4 °F 41% 30.12 in 10.0 mi SE 4.6 mph - N/A   Scattered Clouds
7:33 PM 71.6 °F - 46.4 °F 41% 30.12 in 10.0 mi Calm Calm - N/A   Scattered Clouds
7:53 PM 69.8 °F - 48.2 °F 46% 30.12 in 10.0 mi NNW 3.5 mph - N/A   Clear
8:14 PM 66.2 °F - 48.2 °F 52% 30.12 in 7.0 mi NNW 3.5 mph - N/A   Clear
8:34 PM 64.4 °F - 48.2 °F 56% 30.13 in 10.0 mi Calm Calm - N/A   Clear
8:53 PM 64.4 °F - 48.2 °F 56% 30.13 in 10.0 mi NNW 3.5 mph - N/A   Clear
9:13 PM 60.8 °F - 48.2 °F 63% 30.13 in 10.0 mi NNW 4.6 mph - N/A   Clear
9:34 PM 60.8 °F - 48.2 °F 63% 30.14 in 10.0 mi NNW 4.6 mph - N/A   Clear
9:54 PM 60.8 °F - 48.2 °F 63% 30.14 in 10.0 mi NNW 4.6 mph - N/A   Clear
10:14 PM 60.8 °F - 48.2 °F 63% 30.15 in 10.0 mi North 5.8 mph - N/A   Clear
10:33 PM 59.0 °F - 48.2 °F 67% 30.16 in 10.0 mi North 4.6 mph - N/A   Clear
10:53 PM 57.2 °F - 48.2 °F 72% 30.16 in 10.0 mi North 4.6 mph - N/A   Clear
11:13 PM 57.2 °F - 48.2 °F 72% 30.16 in 10.0 mi North 4.6 mph - N/A   Clear
11:33 PM 59.0 °F - 48.2 °F 67% 30.17 in 10.0 mi North 5.8 mph - N/A   Clear
11:54 PM 59.0 °F - 48.2 °F 67% 30.17 in 10.0 mi North 5.8 mph - N/A   Clear